When you browse on this site, cookies collect data to enhance your experience and personalize the content and advertising you see.
Visit our Privacy Policy to learn more. By continuing to use the site, you agree to this use of cookies and data.
  • en Suisse
  • Liste des pays
  • À 7 jours
  • Température de l'eau
  • Carte satellitaire
  • Carte météo
  • Widgets météo
  • user-avatar
    Se connecter

    Météo par heure à Kalgoorlie

    Ce jour, 21 Mai, Mardi

    Heure Température Précipitation Vent Pression Humidité
    00:00 +16°C° 0 mm 3 m/s 732 mmHg 80%
    01:00 +16°C° 0 mm 3 m/s 732 mmHg 83%
    02:00 +14°C° 0 mm 3 m/s 732 mmHg 82%
    03:00 +15°C° 0 mm 2 m/s 732 mmHg 82%
    04:00 +14°C° 0 mm 2 m/s 733 mmHg 82%
    05:00 +14°C° 0 mm 2 m/s 733 mmHg 82%
    06:00 +15°C° 0 mm 2 m/s 733 mmHg 78%
    07:00 +15°C° 0 mm 2 m/s 734 mmHg 74%
    08:00 +16°C° 0 mm 1 m/s 734 mmHg 70%
    09:00 +18°C° 0 mm 1 m/s 734 mmHg 66%
    10:00 +20°C° 0 mm 1 m/s 734 mmHg 62%
    11:00 +19°C° 0 mm 0 m/s 734 mmHg 58%
    12:00 +21°C° 0 mm 1 m/s 734 mmHg 57%
    13:00 +22°C° 0 mm 1 m/s 733 mmHg 55%
    14:00 +23°C° 0 mm 1 m/s 733 mmHg 52%
    15:00 +23°C° 0 mm 1 m/s 733 mmHg 52%
    16:00 +23°C° 0 mm 1 m/s 734 mmHg 52%
    17:00 +23°C° 0 mm 1 m/s 734 mmHg 52%
    18:00 +21°C° 0 mm 2 m/s 734 mmHg 55%
    19:00 +20°C° 0 mm 2 m/s 734 mmHg 57%
    20:00 +19°C° 0 mm 3 m/s 735 mmHg 60%
    21:00 +19°C° 0 mm 3 m/s 735 mmHg 62%
    22:00 +18°C° 0 mm 3 m/s 735 mmHg 64%
    23:00 +18°C° 0 mm 3 m/s 735 mmHg 65%

    Demain, 22 Mai, Mercredi

    Heure Température Précipitation Vent Pression Humidité
    00:00 +17°C° 0 mm 3 m/s 735 mmHg 67%
    01:00 +17°C° 0 mm 3 m/s 735 mmHg 68%
    02:00 +17°C° 0 mm 3 m/s 735 mmHg 70%
    03:00 +16°C° 0 mm 3 m/s 735 mmHg 71%
    04:00 +16°C° 0 mm 3 m/s 735 mmHg 71%
    05:00 +16°C° 0 mm 3 m/s 734 mmHg 72%
    06:00 +15°C° 0 mm 4 m/s 735 mmHg 69%
    07:00 +17°C° 0 mm 4 m/s 735 mmHg 65%
    08:00 +16°C° 0 mm 5 m/s 735 mmHg 62%
    09:00 +19°C° 0 mm 5 m/s 735 mmHg 52%
    10:00 +21°C° 0 mm 5 m/s 735 mmHg 42%
    11:00 +24°C° 0 mm 6 m/s 735 mmHg 32%
    12:00 +26°C° 0 mm 6 m/s 734 mmHg 28%
    13:00 +27°C° 0 mm 6 m/s 734 mmHg 24%
    14:00 +28°C° 0 mm 5 m/s 733 mmHg 21%
    15:00 +27°C° 0 mm 4 m/s 733 mmHg 22%
    16:00 +26°C° 0 mm 3 m/s 732 mmHg 23%
    17:00 +25°C° 0 mm 2 m/s 732 mmHg 25%
    18:00 +24°C° 0 mm 2 m/s 732 mmHg 25%
    19:00 +23°C° 0 mm 2 m/s 733 mmHg 26%
    20:00 +23°C° 0 mm 2 m/s 733 mmHg 27%
    21:00 +21°C° 0 mm 2 m/s 733 mmHg 27%
    22:00 +21°C° 0 mm 3 m/s 733 mmHg 28%
    23:00 +21°C° 0 mm 3 m/s 733 mmHg 28%

    Après-demain, 23 Mai, Jeudi

    Heure Température Précipitation Vent Pression Humidité
    00:00 +20°C° 0 mm 3 m/s 733 mmHg 32%
    01:00 +19°C° 0 mm 3 m/s 733 mmHg 35%
    02:00 +18°C° 0 mm 3 m/s 733 mmHg 39%
    03:00 +18°C° 0 mm 4 m/s 733 mmHg 47%
    04:00 +17°C° 0 mm 4 m/s 733 mmHg 55%
    05:00 +15°C° 0 mm 5 m/s 733 mmHg 63%
    06:00 +15°C° 0 mm 4 m/s 733 mmHg 65%
    07:00 +15°C° 0 mm 4 m/s 734 mmHg 68%
    08:00 +15°C° 0 mm 4 m/s 734 mmHg 70%
    09:00 +17°C° 0 mm 5 m/s 735 mmHg 62%
    10:00 +19°C° 0 mm 5 m/s 735 mmHg 54%
    11:00 +21°C° 0 mm 6 m/s 735 mmHg 46%
    12:00 +22°C° 0 mm 5 m/s 735 mmHg 43%
    13:00 +23°C° 0 mm 5 m/s 734 mmHg 40%
    14:00 +23°C° 0 mm 5 m/s 734 mmHg 38%
    15:00 +22°C° 0 mm 5 m/s 734 mmHg 42%
    16:00 +21°C° 0 mm 4 m/s 734 mmHg 46%
    17:00 +20°C° 0 mm 4 m/s 735 mmHg 50%
    18:00 +19°C° 0 mm 4 m/s 735 mmHg 53%
    19:00 +18°C° 0 mm 4 m/s 735 mmHg 57%
    20:00 +17°C° 0 mm 4 m/s 735 mmHg 61%
    21:00 +17°C° 0 mm 4 m/s 736 mmHg 62%
    22:00 +15°C° 0 mm 4 m/s 736 mmHg 63%
    23:00 +16°C° 0 mm 3 m/s 736 mmHg 65%

    24 Mai, Vendredi

    Heure Température Précipitation Vent Pression Humidité
    00:00 +14°C° 0 mm 3 m/s 735 mmHg 67%
    01:00 +14°C° 0 mm 3 m/s 735 mmHg 70%
    02:00 +13°C° 0 mm 3 m/s 735 mmHg 73%
    03:00 +13°C° 0 mm 3 m/s 735 mmHg 75%
    04:00 +12°C° 0 mm 3 m/s 735 mmHg 76%
    05:00 +12°C° 0 mm 3 m/s 734 mmHg 78%
    06:00 +12°C° 0 mm 3 m/s 735 mmHg 77%
    07:00 +12°C° 0 mm 3 m/s 735 mmHg 76%
    08:00 +12°C° 0 mm 3 m/s 735 mmHg 75%
    09:00 +15°C° 0 mm 2 m/s 735 mmHg 67%
    10:00 +16°C° 0 mm 2 m/s 735 mmHg 59%
    11:00 +19°C° 0 mm 1 m/s 735 mmHg 52%
    12:00 +20°C° 0 mm 1 m/s 735 mmHg 47%
    13:00 +21°C° 0 mm 1 m/s 734 mmHg 42%
    14:00 +21°C° 0 mm 2 m/s 733 mmHg 37%
    15:00 +20°C° 0 mm 2 m/s 733 mmHg 37%
    16:00 +20°C° 0 mm 2 m/s 733 mmHg 38%
    17:00 +20°C° 0 mm 2 m/s 733 mmHg 38%
    18:00 +19°C° 0 mm 2 m/s 734 mmHg 41%
    19:00 +18°C° 0 mm 3 m/s 734 mmHg 44%
    20:00 +17°C° 0 mm 3 m/s 734 mmHg 47%
    21:00 +17°C° 0 mm 3 m/s 734 mmHg 49%
    22:00 +15°C° 0 mm 4 m/s 734 mmHg 51%
    23:00 +14°C° 0 mm 4 m/s 734 mmHg 52%

    25 Mai, Samedi

    Heure Température Précipitation Vent Pression Humidité
    00:00 +14°C° 0 mm 4 m/s 734 mmHg 56%
    01:00 +13°C° 0 mm 3 m/s 734 mmHg 59%
    02:00 +13°C° 0 mm 3 m/s 734 mmHg 63%
    03:00 +12°C° 0 mm 3 m/s 734 mmHg 65%
    04:00 +12°C° 0 mm 3 m/s 734 mmHg 68%
    05:00 +12°C° 0 mm 3 m/s 734 mmHg 71%
    06:00 +12°C° 0 mm 3 m/s 734 mmHg 72%
    07:00 +12°C° 0 mm 3 m/s 735 mmHg 73%
    08:00 +13°C° 0 mm 2 m/s 735 mmHg 73%
    09:00 +15°C° 0 mm 2 m/s 735 mmHg 68%
    10:00 +16°C° 0 mm 2 m/s 735 mmHg 62%
    11:00 +18°C° 0 mm 2 m/s 735 mmHg 56%
    12:00 +18°C° 0 mm 2 m/s 734 mmHg 52%
    13:00 +19°C° 0 mm 2 m/s 734 mmHg 48%
    14:00 +20°C° 0 mm 2 m/s 733 mmHg 44%
    15:00 +19°C° 0 mm 2 m/s 733 mmHg 45%
    16:00 +19°C° 0 mm 3 m/s 734 mmHg 45%
    17:00 +19°C° 0 mm 3 m/s 734 mmHg 46%
    18:00 +18°C° 0 mm 3 m/s 734 mmHg 48%
    19:00 +17°C° 0 mm 3 m/s 735 mmHg 50%
    20:00 +16°C° 0 mm 3 m/s 736 mmHg 52%
    21:00 +16°C° 0 mm 3 m/s 736 mmHg 55%
    22:00 +14°C° 0 mm 4 m/s 736 mmHg 58%
    23:00 +14°C° 0 mm 4 m/s 736 mmHg 61%

    26 Mai, Dimanche

    Heure Température Précipitation Vent Pression Humidité
    00:00 +13°C° 0 mm 4 m/s 736 mmHg 69%
    01:00 +12°C° 0 mm 5 m/s 736 mmHg 77%
    02:00 +10°C° 0 mm 5 m/s 736 mmHg 84%
    03:00 +10°C° 0 mm 5 m/s 736 mmHg 86%
    04:00 +10°C° 0 mm 5 m/s 736 mmHg 88%
    05:00 +10°C° 0 mm 4 m/s 736 mmHg 90%
    06:00 +11°C° 0 mm 4 m/s 737 mmHg 88%
    07:00 +10°C° 0 mm 5 m/s 737 mmHg 86%
    08:00 +10°C° 0 mm 5 m/s 737 mmHg 84%
    09:00 +13°C° 0 mm 4 m/s 737 mmHg 76%
    10:00 +14°C° 0 mm 4 m/s 737 mmHg 68%
    11:00 +17°C° 0 mm 4 m/s 737 mmHg 60%
    12:00 +17°C° 0 mm 4 m/s 737 mmHg 57%
    13:00 +17°C° 0 mm 3 m/s 736 mmHg 54%
    14:00 +18°C° 0 mm 3 m/s 735 mmHg 51%
    15:00 +18°C° 0 mm 3 m/s 736 mmHg 51%
    16:00 +17°C° 0 mm 3 m/s 736 mmHg 52%
    17:00 +17°C° 0 mm 3 m/s 736 mmHg 52%
    18:00 +16°C° 0 mm 3 m/s 736 mmHg 54%
    19:00 +14°C° 0 mm 3 m/s 737 mmHg 56%
    20:00 +14°C° 0 mm 3 m/s 737 mmHg 58%
    21:00 +14°C° 0 mm 2 m/s 737 mmHg 60%
    22:00 +14°C° 0 mm 2 m/s 737 mmHg 62%
    23:00 +13°C° 0 mm 2 m/s 737 mmHg 64%
    Voir plus